Location: El Centro
(32.7920°N, 115.5620°W)
Time: 17:25:33
(UTC-08:00)

Amateur Radio Satellites - All Passes

Search period start: 08 February 2016 16:55
Search period end: 09 February 2016 16:55
Location: El Centro, 32.7920°N, 115.5620°W

Satellite Date Start Highest point End Downlink Frequencies (MHz)
Time Altitude Azimuth
BEESAT 3 08 Feb 17:04:55 17:08:48 53° 300° (WNW) 17:12:43 437.485
MOZHAYETS 4 08 Feb 17:13:31 17:15:08 12° 294° (WNW) 17:16:45
CUTE-I 08 Feb 17:14:40 17:19:58 79° 76° (ENE) 17:25:19 437.470
Cosmos 2491 08 Feb 17:22:04 17:23:29 10° 296° (WNW) 17:24:53 435.465 / 435.565
BEESAT 2 08 Feb 17:26:37 17:30:30 48° 300° (WNW) 17:34:25 435.950
Cubesat XI-IV 08 Feb 17:27:57 17:33:15 77° 257° (WSW) 17:38:36 437.490
AIST 2 08 Feb 17:34:49 17:37:12 15° 108° (ESE) 17:39:33 435.215
CUBESAT XI-V 08 Feb 17:47:50 17:52:23 50° 286° (WNW) 17:56:53 437.345
Cosmos 2504 08 Feb 17:48:37 17:54:07 19° 280° (W) 17:59:26 435.465 / 435.565
DOVE 4 08 Feb 17:53:57 17:58:07 25° 71° (ENE) 18:02:09 437.250
STRAND 1 08 Feb 17:55:18 17:59:03 20° 95° (E) 18:02:46 437.568
HO-68 08 Feb 17:57:44 18:02:59 22° 62° (ENE) 18:08:13 435.675
GOMX 1 08 Feb 18:04:25 18:09:51 66° 76° (ENE) 18:15:06 467.674
O/OREOS (USA 219) 08 Feb 18:08:03 18:12:39 76° 253° (WSW) 18:17:13 437.305
RS-15 08 Feb 18:27:08 18:36:01 22° 37° (NE) 18:44:58 29.354- 29.394
BRITE-PL 08 Feb 18:29:50 18:35:04 38° 263° (W) 18:40:18 437.365/2234.400
LilacSat-2 08 Feb 18:30:05 18:31:42 12° 266° (W) 18:33:20 437.200
AO-85 08 Feb 18:42:39 18:46:49 25° 52° (NE) 18:50:41 145.980
CANX-2 08 Feb 18:46:00 18:49:49 35° 73° (ENE) 18:53:40 2200.000
GONETS M04 08 Feb 18:47:07 18:54:17 27° 73° (ENE) 19:01:26
CINEMA 3 08 Feb 18:58:01 19:02:23 38° 74° (ENE) 19:06:34 145.822/145.860
Cosmos 2499 08 Feb 19:08:50 19:12:06 13° 65° (ENE) 19:15:16 435.465 / 435.565
AIST 2 08 Feb 19:11:28 19:15:20 37° 302° (WNW) 19:19:14 435.215
CUBEBUG 2 08 Feb 19:15:12 19:18:16 19° 70° (ENE) 19:21:18 437.445
UWE-3 08 Feb 19:19:30 19:21:52 15° 69° (ENE) 19:24:13 435.000/436.395/437.385
Oscar 11 08 Feb 19:24:54 19:27:26 15° 69° (ENE) 19:29:58 145.826/435.025
DOVE 4 08 Feb 19:31:05 19:35:37 30° 263° (W) 19:40:01 437.250
PCSat 08 Feb 19:31:07 19:35:56 31° 58° (ENE) 19:40:42 145.827
COMPASS 1 08 Feb 19:33:23 19:37:28 64° 76° (ENE) 19:41:35 437.405
STRAND 1 08 Feb 19:33:31 19:38:16 38° 289° (WNW) 19:43:00 437.568
CUTE 1.7 + AOD 2 08 Feb 19:36:32 19:40:39 59° 260° (W) 19:44:49 437.475
HO-68 08 Feb 19:43:03 19:50:05 60° 257° (WSW) 19:57:12 435.675
SEEDS 08 Feb 19:45:11 19:49:18 63° 259° (W) 19:53:28 437.485
GOMX 1 08 Feb 19:45:53 19:48:10 13° 268° (W) 19:50:25 467.674
DELFI C3 08 Feb 19:53:56 19:56:24 16° 69° (ENE) 19:58:52 145.870
PRISM 08 Feb 19:57:52 20:01:57 54° 285° (WNW) 20:05:59 437.425
AAUSAT CUBESAT 2 08 Feb 20:03:18 20:07:23 65° 260° (W) 20:11:30 437.432
ZACube-1 08 Feb 20:14:36 20:18:40 46° 75° (ENE) 20:22:40 437.345
AO-85 08 Feb 20:22:58 20:27:20 32° 250° (WSW) 20:31:20 145.980
CANX-2 08 Feb 20:23:31 20:25:45 14° 266° (W) 20:28:01 2200.000
FUNcube-1 08 Feb 20:24:14 20:28:23 58° 76° (ENE) 20:32:29 145.935
CINEMA 3 08 Feb 20:36:40 20:39:34 16° 265° (W) 20:42:23 145.822/145.860
RS-15 08 Feb 20:38:33 20:50:49 77° 61° (ENE) 21:03:09 29.354- 29.394
GONETS M04 08 Feb 20:42:55 20:51:24 55° 270° (W) 20:59:55
HUMSAT D 08 Feb 20:44:42 20:48:08 27° 72° (ENE) 20:51:34 437.325/437.525
CUBEBUG 2 08 Feb 20:50:53 20:54:42 28° 263° (W) 20:58:25 437.445
UWE-3 08 Feb 20:54:02 20:58:02 36° 262° (W) 21:01:57 435.000/436.395/437.385
Cosmos 2499 08 Feb 20:58:11 21:06:34 85° 84° (E) 21:14:15 435.465 / 435.565
Oscar 11 08 Feb 20:59:18 21:03:14 35° 262° (W) 21:07:12 145.826/435.025
DX 1 08 Feb 21:11:35 21:12:54 11° 66° (ENE) 21:14:12 434.975-435.025
ANTELSAT 08 Feb 21:12:43 21:15:39 18° 95° (E) 21:18:38 437.575/2403.000
PCSat 08 Feb 21:14:35 21:19:11 29° 253° (WSW) 21:23:45 145.827
TIGRISAT 08 Feb 21:19:46 21:23:00 20° 96° (E) 21:26:15 435.000
DELFI C3 08 Feb 21:27:37 21:31:03 28° 263° (W) 21:34:31 145.870
ZACube-1 08 Feb 21:54:06 21:55:08 11° 267° (W) 21:56:09 437.345
50 SAT 08 Feb 21:54:17 21:57:42 37° 74° (ENE) 22:01:08 437.505
AIST 1 08 Feb 21:57:26 22:01:40 54° 266° (W) 22:05:51
VELOX 1 08 Feb 21:58:46 22:02:53 37° 73° (ENE) 22:07:01 145.980
UNISAT 6 08 Feb 22:03:01 22:07:23 74° 102° (ESE) 22:11:48 437.425
ISS 08 Feb 22:12:01 22:14:39 22° 36° (NE) 22:17:17 145.825
AISAT 08 Feb 22:14:54 22:19:18 63° 75° (ENE) 22:23:44 437.250
HUMSAT D 08 Feb 22:20:59 22:23:45 18° 265° (W) 22:26:31 437.325/437.525
POLYITAN 1 08 Feb 22:30:16 22:34:01 31° 98° (E) 22:37:44 437.675
QB50P2 08 Feb 22:30:57 22:34:44 33° 98° (E) 22:38:32 145.880/145.840
ESTCUBE 1 08 Feb 22:32:03 22:36:33 76° 258° (WSW) 22:41:05 437.505/2401.250
UKube-1 08 Feb 22:34:15 22:38:35 86° 260° (W) 22:42:57 .
CUBEBUG 1 08 Feb 22:37:56 22:42:23 89° 266° (W) 22:46:50 437.445
BUGSAT 1 08 Feb 22:40:27 22:43:08 17° 95° (E) 22:45:47 437.445
DX 1 08 Feb 22:44:18 22:48:34 53° 259° (W) 22:52:52 434.975-435.025
SPROUT 08 Feb 22:45:59 22:49:53 35° 73° (ENE) 22:53:48 437.525
ANTELSAT 08 Feb 22:48:31 22:52:22 31° 287° (WNW) 22:56:17 437.575/2403.000
RS-15 08 Feb 22:52:53 23:02:06 26° 258° (WSW) 23:11:20 29.354- 29.394
Cosmos 2499 08 Feb 22:54:34 22:58:21 14° 282° (WNW) 23:02:00 435.465 / 435.565
TIGRISAT 08 Feb 22:55:58 22:59:37 27° 288° (WNW) 23:03:21 435.000
TISAT 1 08 Feb 23:00:32 23:03:23 18° 69° (ENE) 23:06:15 437.305
POPSAT HIP 1 08 Feb 23:00:41 23:04:53 76° 102° (ESE) 23:09:04 437.405
PHONESAT 2.4 08 Feb 23:03:06 23:04:54 14° 141° (SE) 23:06:41 2401.200-2431.200
NANOSAT C BR1 08 Feb 23:06:07 23:10:19 87° 102° (ESE) 23:14:30 145.865
DUCHIFAT 1 08 Feb 23:08:03 23:12:15 87° 105° (ESE) 23:16:26 145.980
QB50P1 08 Feb 23:13:27 23:17:39 73° 284° (WNW) 23:21:49 145.935-145.965
VELOX 1 08 Feb 23:36:49 23:39:27 15° 266° (W) 23:42:05 145.980
ISS 08 Feb 23:48:19 23:51:02 25° 231° (SW) 23:53:46 145.825
SWISSCUBE 09 Feb 00:04:54 00:08:17 20° 68° (ENE) 00:11:40 437.505
POLYITAN 1 09 Feb 00:06:53 00:09:33 17° 291° (WNW) 00:12:15 437.675
QB50P2 09 Feb 00:07:41 00:10:15 16° 291° (WNW) 00:12:50 145.880/145.840
BUGSAT 1 09 Feb 00:15:06 00:18:30 26° 288° (WNW) 00:21:51 437.445
SPROUT 09 Feb 00:23:25 00:25:56 15° 266° (W) 00:28:27 437.525
TISAT 1 09 Feb 00:35:06 00:38:49 29° 262° (W) 00:42:32 437.305
PHONESAT 2.4 09 Feb 00:38:34 00:41:50 82° 333° (NNW) 00:45:08 2401.200-2431.200
ITUPSAT 1 09 Feb 00:39:54 00:44:21 41° 73° (ENE) 00:48:50 437.325
CUSAT 1 09 Feb 00:46:03 00:53:17 46° 90° (E) 01:00:56 437.405
BEESAT 09 Feb 00:48:53 00:53:30 54° 74° (ENE) 00:58:09 436.000
DANDE 09 Feb 01:10:52 01:17:36 41° 88° (E) 01:25:16 436.750
KKS-1 09 Feb 01:12:17 01:13:09 10° 65° (ENE) 01:14:01 437.445
JAS-2 09 Feb 01:13:45 01:19:14 58° 100° (E) 01:24:20 435.910
Oscar 19 09 Feb 01:18:59 01:24:06 77° 284° (WNW) 01:29:12 437.125/150
BEESAT 3 09 Feb 01:27:14 01:30:15 21° 54° (NE) 01:33:16 437.485
Cosmos 2491 09 Feb 01:32:30 01:40:50 46° 78° (ENE) 01:49:08 435.465 / 435.565
SWISSCUBE 09 Feb 01:41:29 01:45:47 34° 262° (W) 01:50:08 437.505
Gurwin Techsat 1B 09 Feb 01:41:41 01:46:58 61° 101° (E) 01:52:12 435.225
BEESAT 2 09 Feb 01:49:29 01:52:42 23° 55° (NE) 01:55:53 435.950
PHONESAT 2.4 09 Feb 02:16:40 02:19:25 24° 350° (N) 02:22:09 2401.200-2431.200
YUBILEINY 09 Feb 02:16:55 02:25:04 45° 88° (E) 02:33:17 435.215
ITUPSAT 1 09 Feb 02:19:28 02:22:19 16° 266° (W) 02:25:10 437.325
AO-7 09 Feb 02:20:26 02:26:43 23° 96° (E) 02:32:56 29.400- 29.500
ITAMSAT 1 09 Feb 02:25:29 02:30:44 85° 102° (ESE) 02:35:59 435.822/435.867
CUSAT 1 09 Feb 02:28:44 02:35:39 34° 286° (WNW) 02:42:52 437.405
BEESAT 09 Feb 02:29:49 02:31:33 12° 267° (W) 02:33:17 436.000
STARS 09 Feb 02:30:30 02:34:43 46° 74° (ENE) 02:38:55 437.465
MOZHAYETS 4 09 Feb 02:31:41 02:35:41 31° 72° (ENE) 02:39:43
KKS-1 09 Feb 02:44:46 02:49:10 59° 259° (W) 02:53:35 437.445
DANDE 09 Feb 02:53:45 03:00:32 37° 287° (WNW) 03:08:11 436.750
JAS-2 09 Feb 03:00:55 03:03:38 14° 298° (WNW) 03:06:16 435.910
BEESAT 3 09 Feb 03:04:43 03:07:56 25° 249° (WSW) 03:11:10 437.485
M-CUBED/EXP-1 PRIME 09 Feb 03:08:35 03:10:50 16° 102° (ESE) 03:13:10 437.505
AUBIESAT-1 09 Feb 03:19:01 03:21:33 18° 102° (ESE) 03:24:09 437.475
Gurwin Techsat 1B 09 Feb 03:23:40 03:26:20 14° 295° (WNW) 03:28:59 435.225
BEESAT 2 09 Feb 03:27:21 03:30:28 22° 249° (WSW) 03:33:33 435.950
Cosmos 2491 09 Feb 03:29:53 03:37:16 32° 274° (W) 03:44:41 435.465 / 435.565
AIST 2 09 Feb 03:36:54 03:40:41 34° 57° (ENE) 03:44:25 435.215
SO-50 09 Feb 03:51:25 03:55:52 37° 113° (ESE) 04:00:24 436.795
PHONESAT 2.4 09 Feb 03:54:41 03:57:18 22° 7° (N) 03:59:56 2401.200-2431.200
HORYU 2 09 Feb 04:07:17 04:11:44 81° 104° (ESE) 04:16:11 437.375
STARS 09 Feb 04:09:32 04:11:15 12° 267° (W) 04:12:59 437.465
MOZHAYETS 4 09 Feb 04:09:38 04:12:51 19° 265° (W) 04:16:07
AO-7 09 Feb 04:11:41 04:19:52 63° 291° (WNW) 04:27:59 29.400- 29.500
YUBILEINY 09 Feb 04:14:16 04:21:54 33° 285° (WNW) 04:29:39 435.215
Cosmos 2504 09 Feb 04:24:19 04:32:36 66° 92° (E) 04:41:20 435.465 / 435.565
M-CUBED/EXP-1 PRIME 09 Feb 04:42:45 04:45:24 21° 292° (WNW) 04:48:11 437.505
CUBESAT XI-V 09 Feb 04:46:09 04:50:49 88° 250° (WSW) 04:55:34 437.345
AUBIESAT-1 09 Feb 04:53:26 04:56:01 20° 292° (WNW) 04:58:42 437.475
STRAND 1 09 Feb 05:07:20 05:10:51 19° 67° (ENE) 05:14:22 437.568
AIST 2 09 Feb 05:16:21 05:18:50 16° 251° (WSW) 05:21:20 435.215
PHONESAT 2.4 09 Feb 05:31:44 05:34:58 56° 23° (NNE) 05:38:11 2401.200-2431.200
SO-50 09 Feb 05:32:35 05:36:27 23° 308° (NW) 05:40:21 436.795
CUTE-I 09 Feb 05:36:24 05:41:33 45° 100° (E) 05:46:41 437.470
Cubesat XI-IV 09 Feb 05:49:44 05:55:04 63° 101° (ESE) 06:00:23 437.490
LilacSat-2 09 Feb 06:05:27 06:09:14 83° 281° (WNW) 06:13:01 437.200
AO-7 09 Feb 06:09:22 06:10:59 11° 309° (NW) 06:12:35 29.400- 29.500
GOMX 1 09 Feb 06:12:19 06:15:46 23° 95° (E) 06:19:07 467.674
Cosmos 2504 09 Feb 06:20:11 06:26:35 23° 289° (WNW) 06:33:15 435.465 / 435.565
O/OREOS (USA 219) 09 Feb 06:37:52 06:41:11 21° 101° (E) 06:44:31 437.305
BRITE-PL 09 Feb 06:39:50 06:44:30 70° 284° (WNW) 06:48:49 437.365/2234.400
PRISM 09 Feb 06:42:42 06:46:45 56° 75° (ENE) 06:50:51 437.425
STRAND 1 09 Feb 06:44:52 06:49:39 41° 261° (W) 06:54:30 437.568
CINEMA 3 09 Feb 06:59:34 07:00:36 11° 93° (E) 07:01:38 145.822/145.860
PHONESAT 2.4 09 Feb 07:09:31 07:12:02 21° 217° (SW) 07:14:33 2401.200-2431.200
HO-68 09 Feb 07:15:58 07:22:24 34° 98° (E) 07:28:47 435.675
CUTE-I 09 Feb 07:17:31 07:21:12 19° 294° (WNW) 07:24:52 437.470
COMPASS 1 09 Feb 07:22:13 07:24:34 14° 94° (E) 07:26:54 437.405
CUTE 1.7 + AOD 2 09 Feb 07:26:04 07:29:55 31° 98° (E) 07:33:44 437.475
JUGNU 09 Feb 07:30:10 07:33:40 16° 167° (SSE) 07:37:09 437.505
Cubesat XI-IV 09 Feb 07:31:50 07:34:32 14° 296° (WNW) 07:37:15 437.490
SEEDS 09 Feb 07:33:51 07:37:34 29° 97° (E) 07:41:16 437.485
DOVE 4 09 Feb 07:34:21 07:38:33 71° 283° (WNW) 07:42:39 437.250
Cosmos 2499 09 Feb 07:41:30 07:44:05 12° 77° (ENE) 07:46:40 435.465 / 435.565
GONETS M04 09 Feb 07:42:31 07:50:07 36° 86° (E) 07:57:44
GOMX 1 09 Feb 07:50:23 07:53:46 22° 290° (WNW) 07:57:00 467.674
AAUSAT CUBESAT 2 09 Feb 07:50:32 07:54:05 26° 97° (E) 07:57:37 437.432
ZACube-1 09 Feb 08:09:04 08:10:48 12° 94° (E) 08:12:33 437.345
CANX-2 09 Feb 08:10:42 08:14:56 59° 284° (WNW) 08:19:09 2200.000
O/OREOS (USA 219) 09 Feb 08:16:32 08:20:21 27° 295° (WNW) 08:24:13 437.305
TIGRISAT 09 Feb 08:16:48 08:17:41 11° 67° (ENE) 08:18:34 435.000
FUNcube-1 09 Feb 08:17:48 08:20:19 15° 95° (E) 08:22:50 145.935
CINEMA 3 09 Feb 08:34:00 08:37:56 43° 286° (WNW) 08:41:54 145.822/145.860
CUBEBUG 2 09 Feb 08:45:14 08:49:27 79° 103° (ESE) 08:53:43 437.445
UWE-3 09 Feb 08:47:28 08:51:38 57° 100° (E) 08:55:52 435.000/436.395/437.385
Oscar 11 09 Feb 08:50:27 08:54:44 55° 100° (E) 08:58:59 145.826/435.025
AO-85 09 Feb 08:52:12 08:56:19 24° 108° (ESE) 09:00:36 145.980
RS-15 09 Feb 08:52:24 08:56:22 12° 97° (E) 09:00:23 29.354- 29.394
COMPASS 1 09 Feb 08:56:21 09:00:12 35° 287° (WNW) 09:04:02 437.405
UNISAT 6 09 Feb 08:57:47 09:01:46 36° 73° (ENE) 09:05:42 437.425
CUTE 1.7 + AOD 2 09 Feb 09:02:41 09:05:29 17° 291° (WNW) 09:08:16 437.475
HO-68 09 Feb 09:03:30 09:10:01 38° 293° (WNW) 09:16:30 435.675
SRMSAT 09 Feb 09:05:31 09:08:18 14° 165° (SSE) 09:11:06 437.500
DELFI C3 09 Feb 09:09:27 09:13:23 47° 100° (E) 09:17:16 145.870
SEEDS 09 Feb 09:10:05 09:13:02 19° 290° (WNW) 09:15:59 437.485
JUGNU 09 Feb 09:17:34 09:22:02 22° 177° (S) 09:26:29 437.505
POLYITAN 1 09 Feb 09:20:08 09:22:23 14° 68° (ENE) 09:24:37 437.675
QB50P2 09 Feb 09:20:39 09:23:03 15° 68° (ENE) 09:25:27 145.880/145.840
AAUSAT CUBESAT 2 09 Feb 09:26:21 09:29:23 20° 290° (WNW) 09:32:25 437.432
Cosmos 2499 09 Feb 09:27:04 09:35:38 78° 93° (E) 09:44:32 435.465 / 435.565
GONETS M04 09 Feb 09:38:40 09:46:40 41° 283° (WNW) 09:54:46
ANTELSAT 09 Feb 09:42:29 09:46:47 62° 259° (W) 09:51:02 437.575/2403.000
ZACube-1 09 Feb 09:43:14 09:47:13 41° 286° (WNW) 09:51:17 437.345
POPSAT HIP 1 09 Feb 09:49:04 09:52:47 30° 72° (ENE) 09:56:31 437.405
TIGRISAT 09 Feb 09:49:39 09:53:54 53° 260° (W) 09:58:06 435.000
FUNcube-1 09 Feb 09:52:47 09:56:35 34° 287° (WNW) 10:00:28 145.935
NANOSAT C BR1 09 Feb 09:54:03 09:57:52 34° 73° (ENE) 10:01:42 145.865
DUCHIFAT 1 09 Feb 09:55:46 09:59:35 34° 73° (ENE) 10:03:23 145.980
QB50P1 09 Feb 10:01:25 10:05:27 44° 74° (ENE) 10:09:29 145.935-145.965
HUMSAT D 09 Feb 10:07:10 10:11:21 83° 283° (WNW) 10:15:34 437.325/437.525
PCSat 09 Feb 10:07:39 10:13:01 70° 113° (ESE) 10:18:25 145.827
AISAT 09 Feb 10:10:55 10:13:44 17° 95° (E) 10:16:31 437.250
AIST 1 09 Feb 10:21:34 10:25:57 76° 277° (W) 10:30:23
UKube-1 09 Feb 10:26:38 10:29:59 22° 96° (E) 10:33:19 .
ESTCUBE 1 09 Feb 10:29:22 10:33:26 31° 98° (E) 10:37:26 437.505/2401.250
Oscar 11 09 Feb 10:29:32 10:30:20 10° 294° (WNW) 10:31:08 145.826/435.025
AO-85 09 Feb 10:31:37 10:36:35 40° 304° (NW) 10:41:44 145.980
CUBEBUG 1 09 Feb 10:31:48 10:35:17 23° 96° (E) 10:38:44 437.445
UNISAT 6 09 Feb 10:36:08 10:38:34 15° 266° (W) 10:40:58 437.425
DX 1 09 Feb 10:37:04 10:41:03 35° 98° (E) 10:45:01 434.975-435.025
DELFI C3 09 Feb 10:47:07 10:47:49 10° 293° (WNW) 10:48:31 145.870
SRMSAT 09 Feb 10:52:27 10:56:49 21° 174° (S) 11:01:12 437.500
POLYITAN 1 09 Feb 10:53:53 10:57:50 38° 261° (W) 11:01:47 437.675
QB50P2 09 Feb 10:54:37 10:58:32 36° 262° (W) 11:02:26 145.880/145.840
RS-15 09 Feb 10:55:40 11:06:37 77° 114° (ESE) 11:18:10 29.354- 29.394
BUGSAT 1 09 Feb 10:59:27 11:03:40 75° 259° (WSW) 11:07:51 437.445
50 SAT 09 Feb 11:03:37 11:07:26 80° 281° (W) 11:11:14 437.505
JUGNU 09 Feb 11:06:13 11:10:27 20° 187° (S) 11:14:39 437.505
JAS-2 09 Feb 11:20:57 11:26:16 21° 65° (ENE) 11:31:19 435.910
Cosmos 2499 09 Feb 11:23:48 11:29:37 19° 291° (WNW) 11:35:33 435.465 / 435.565
POPSAT HIP 1 09 Feb 11:25:50 11:28:35 17° 265° (W) 11:31:21 437.405
VELOX 1 09 Feb 11:29:26 11:33:45 56° 285° (WNW) 11:38:02 145.980
NANOSAT C BR1 09 Feb 11:31:15 11:33:40 15° 266° (W) 11:36:06 145.865
CUSAT 1 09 Feb 11:31:16 11:34:41 17° 65° (ENE) 11:37:36 437.405
DUCHIFAT 1 09 Feb 11:32:55 11:35:21 15° 266° (W) 11:37:46 145.980
QB50P1 09 Feb 11:39:59 11:41:24 11° 267° (W) 11:42:49 145.935-145.965
AISAT 09 Feb 11:46:19 11:50:16 33° 288° (WNW) 11:54:12 437.250
PCSat 09 Feb 11:53:59 11:56:55 15° 309° (NW) 11:59:53 145.827
DANDE 09 Feb 11:59:13 12:04:07 21° 66° (ENE) 12:08:10 436.750
UKube-1 09 Feb 12:02:25 12:05:56 25° 290° (WNW) 12:09:27 .
ESTCUBE 1 09 Feb 12:06:44 12:09:59 20° 291° (WNW) 12:13:12 437.505/2401.250
CUBEBUG 1 09 Feb 12:07:58 12:11:26 24° 290° (WNW) 12:14:53 437.445
SPROUT 09 Feb 12:11:59 12:16:12 62° 284° (WNW) 12:20:23 437.525
DX 1 09 Feb 12:14:16 12:16:56 16° 292° (WNW) 12:19:34 434.975-435.025
TISAT 1 09 Feb 12:22:58 12:27:05 56° 100° (E) 12:31:09 437.305
SO-50 09 Feb 12:29:03 12:30:55 12° 46° (NE) 12:32:46 436.795
Oscar 19 09 Feb 12:31:08 12:36:20 84° 257° (WSW) 12:41:33 437.125/150
YUBILEINY 09 Feb 12:34:19 12:39:37 17° 68° (ENE) 12:44:53 435.215
SRMSAT 09 Feb 12:40:56 12:45:23 22° 184° (S) 12:49:50 437.500
ITUPSAT 1 09 Feb 12:46:05 12:48:57 16° 94° (E) 12:51:48 437.325
BEESAT 09 Feb 12:54:19 12:57:49 20° 95° (E) 13:01:18 436.000
JUGNU 09 Feb 12:56:38 12:58:46 12° 196° (SSW) 13:00:54 437.505
Gurwin Techsat 1B 09 Feb 12:58:17 13:03:29 63° 75° (ENE) 13:08:45 435.225
JAS-2 09 Feb 13:02:54 13:10:40 70° 258° (WSW) 13:17:55 435.910
RS-15 09 Feb 13:10:50 13:20:12 30° 317° (NW) 13:30:02 29.354- 29.394
CUSAT 1 09 Feb 13:12:25 13:17:23 36° 271° (W) 13:21:12 437.405
AO-7 09 Feb 13:15:18 13:21:28 24° 59° (ENE) 13:27:38 29.400- 29.500
ITAMSAT 1 09 Feb 13:38:57 13:44:07 82° 74° (ENE) 13:49:19 435.822/435.867
DANDE 09 Feb 13:41:17 13:47:32 44° 271° (W) 13:52:18 436.750
SWISSCUBE 09 Feb 13:45:31 13:50:21 85° 103° (ESE) 13:55:09 437.505
M-CUBED/EXP-1 PRIME 09 Feb 13:53:34 13:54:37 11° 65° (ENE) 13:55:38 437.505
AUBIESAT-1 09 Feb 14:03:23 14:04:46 12° 65° (ENE) 14:06:08 437.475
SO-50 09 Feb 14:07:13 14:11:59 75° 244° (WSW) 14:16:32 436.795
ITUPSAT 1 09 Feb 14:22:22 14:26:55 43° 287° (WNW) 14:31:27 437.325
Cosmos 2504 09 Feb 14:24:59 14:30:21 18° 68° (ENE) 14:35:29 435.465 / 435.565
STARS 09 Feb 14:26:34 14:28:07 12° 93° (E) 14:29:40 437.465
Cosmos 2491 09 Feb 14:27:39 14:36:10 62° 91° (E) 14:44:42 435.465 / 435.565
YUBILEINY 09 Feb 14:28:30 14:37:22 83° 265° (W) 14:46:09 435.215
SRMSAT 09 Feb 14:30:42 14:33:55 15° 194° (SSW) 14:37:08 437.500
BEESAT 09 Feb 14:31:20 14:35:37 33° 289° (WNW) 14:39:53 436.000
MOZHAYETS 4 09 Feb 14:33:50 14:34:36 10° 92° (E) 14:35:23
KKS-1 09 Feb 14:40:19 14:44:24 36° 99° (E) 14:48:28 437.445
Gurwin Techsat 1B 09 Feb 14:41:39 14:43:47 12° 268° (W) 14:45:55 435.225
ISS 09 Feb 14:47:52 14:51:06 78° 133° (SE) 14:54:21 145.825
HORYU 2 09 Feb 15:01:01 15:05:09 41° 73° (ENE) 15:09:18 437.375
AO-7 09 Feb 15:05:09 15:13:28 69° 255° (WSW) 15:21:50 29.400- 29.500
M-CUBED/EXP-1 PRIME 09 Feb 15:25:28 15:28:59 36° 255° (WSW) 15:32:17 437.505
AUBIESAT-1 09 Feb 15:35:41 15:39:06 33° 256° (WSW) 15:42:19 437.475
RS-15 09 Feb 15:36:25 15:38:41 11° 352° (N) 15:40:57 29.354- 29.394
BEESAT 2 09 Feb 15:39:38 15:41:08 12° 108° (ESE) 15:42:37 435.950
STARS 09 Feb 16:00:30 16:04:40 46° 286° (WNW) 16:08:50 437.465
MOZHAYETS 4 09 Feb 16:07:29 16:12:03 58° 285° (WNW) 16:16:36
Cosmos 2504 09 Feb 16:16:07 16:24:40 77° 267° (W) 16:32:34 435.465 / 435.565
KKS-1 09 Feb 16:17:54 16:20:39 16° 292° (WNW) 16:23:23 437.445
ISS 09 Feb 16:26:46 16:27:54 11° 330° (NNW) 16:29:03 145.825
Cosmos 2491 09 Feb 16:26:53 16:33:28 24° 288° (WNW) 16:40:07 435.465 / 435.565
YUBILEINY 09 Feb 16:29:48 16:32:41 12° 282° (WNW) 16:35:34 435.215
HORYU 2 09 Feb 16:39:41 16:41:51 13° 266° (W) 16:44:02 437.375
LilacSat-2 09 Feb 16:43:42 16:46:48 24° 72° (ENE) 16:49:53 437.200
